Wind_Speed
13 13 13 13 14 14 14 14 14 14 13 12 12 11 11 10 10 10 10 9 10 10 10 10 10 10 10 10 9 9 12 13 13 9 9 11 10 10 11 12 12 12 12 8 7 7 5 7 9 10 7 4 4 4 5 4 2 3 3 1 1 1 1 2 2 3 3 3 4 2 4 2 3 1 3 3 9 13 12 10 11 11 12 14 20 29 30 29
14 14 14 14 15 15 15 15 15 14 14 13 12 12 11 10 10 10 10 9 10 10 9 10 10 10 10 9 8 9 13 15 13 12 13 12 8 13 17 13 9 10 15 13 11 11 8 6 9 9 5 2 3 4 5 3 1 3 2 1 2 2 3 3 3 4 2 3 5 5 6 3 1 2 4 4 10 12 12 11 13 14 14 17 24 30 28 28
15 16 15 16 16 16 16 16 16 15 14 14 13 12 11 11 11 10 10 9 9 9 9 10 10 10 10 8 7 9 13 12 7 8 6 5 11 16 18 14 10 10 14 14 14 14 11 6 7 6 4 2 3 4 4 1 1 3 3 1 3 2 3 3 5 6 4 2 5 3 3 1 2 4 3 4 13 13 13 13 15 17 15 17 21 27 27 26
17 17 17 17 17 17 17 16 16 16 15 15 14 13 12 11 11 10 10 10 10 9 9 10 10 10 9 7 6 9 10 5 2 5 2 1 10 17 19 15 12 11 11 10 11 14 11 6 5 3 3 4 3 5 4 3 2 3 3 1 3 0 2 3 5 7 6 3 6 4 3 4 3 4 2 6 13 11 11 15 18 21 19 17 19 25 26 24
19 19 19 19 19 19 18 17 17 16 16 15 15 13 12 11 11 10 10 10 9 9 9 9 10 9 8 6 4 7 6 1 1 5 1 3 6 15 18 15 13 12 10 9 9 10 9 6 4 3 4 5 3 4 4 4 3 3 3 5 2 1 1 3 4 6 6 4 7 7 6 5 3 3 4 7 10 8 10 15 19 20 18 18 19 22 24 22
19 20 20 20 21 20 19 18 18 17 16 16 15 14 13 12 11 10 10 10 9 10 10 9 9 9 7 5 3 4 2 0 4 4 1 3 6 12 15 15 14 12 10 9 9 7 6 4 2 3 4 4 6 5 4 4 3 2 2 3 3 3 1 3 3 3 6 5 5 5 3 3 3 2 2 2 6 9 13 17 19 18 19 22 19 18 19 18
19 20 20 21 21 21 21 19 18 18 17 16 16 16 15 13 12 11 11 10 9 10 10 10 10 8 7 4 2 2 1 4 7 3 4 2 7 10 13 14 14 14 12 10 9 6 4 5 4 4 3 3 5 5 5 5 3 3 2 2 3 1 0 3 5 4 5 6 4 2 3 2 3 2 3 1 8 15 16 18 18 19 22 22 16 15 15 15
19 20 21 21 21 21 21 20 19 18 17 17 17 17 16 14 12 10 10 9 9 10 10 10 9 7 7 4 1 2 1 6 4 5 7 5 8 11 14 15 17 16 13 14 13 7 4 5 6 4 3 4 4 5 7 6 3 3 2 4 2 2 2 3 5 6 5 5 2 2 3 1 3 2 3 2 14 19 18 18 18 18 19 16 14 15 14 14
19 20 21 21 21 21 21 21 20 19 18 17 17 18 17 15 13 10 8 8 9 10 10 10 8 6 7 4 2 2 4 4 4 7 7 7 8 12 16 16 19 19 14 16 15 9 5 5 6 5 4 4 4 7 9 6 3 4 5 5 4 2 3 4 4 5 5 3 1 1 2 5 5 2 1 8 17 19 19 18 18 17 15 14 13 14 14 12
19 20 21 22 22 21 21 21 20 20 19 18 18 18 17 15 13 10 8 8 8 9 9 9 6 5 5 3 2 1 4 0 4 6 7 7 7 13 17 16 20 21 15 14 15 11 9 7 4 3 4 4 3 7 8 5 3 6 8 7 6 3 2 2 3 4 3 3 4 1 6 8 7 4 4 12 17 18 19 18 17 16 14 14 13 13 14 14
20 21 22 22 22 22 21 21 20 20 19 19 18 17 16 15 13 10 8 7 8 8 7 6 4 4 3 3 3 2 2 4 3 4 7 8 8 11 16 17 19 23 17 11 15 18 14 12 6 4 3 2 3 6 4 3 6 10 10 8 7 6 3 3 3 4 2 2 2 1 4 3 5 5 7 14 17 19 19 17 16 15 13 13 13 12 11 13
20 21 22 22 22 22 21 21 20 20 20 19 18 17 16 14 12 10 8 7 7 6 6 4 2 3 3 2 4 8 5 2 4 5 8 8 5 4 9 16 18 22 21 11 14 22 19 17 10 4 4 2 3 3 3 6 9 9 7 5 5 6 2 2 2 1 1 1 2 2 2 4 3 5 11 15 16 18 19 17 15 13 12 12 12 10 8 12
20 22 22 23 23 22 21 21 20 20 20 19 17 17 16 14 12 9 8 6 6 6 4 2 1 2 3 1 8 11 12 13 13 11 12 12 4 3 6 12 13 18 21 15 16 21 19 16 10 5 6 1 2 3 6 5 6 7 6 2 2 4 1 3 2 2 1 0 4 1 4 3 1 6 13 16 16 17 17 16 14 12 11 10 11 9 7 11
20 22 23 23 23 23 22 20 20 20 20 19 17 17 16 14 11 9 7 6 5 4 2 1 1 2 2 5 13 12 11 12 14 13 14 16 9 6 9 11 12 15 18 18 18 17 15 16 10 7 6 1 4 5 6 4 4 4 3 3 1 2 1 3 4 2 1 1 5 2 4 2 3 7 6 9 17 18 15 15 14 11 10 10 9 8 6 9
20 22 23 23 23 23 22 21 20 20 20 19 18 17 17 15 12 9 6 5 3 2 1 0 1 1 1 8 12 10 8 8 11 13 13 17 14 8 10 14 15 17 17 17 18 17 17 15 9 5 3 5 8 6 4 2 4 2 2 1 3 1 2 3 4 2 1 1 4 3 4 2 4 10 4 4 12 18 15 14 13 12 12 10 8 8 6 8
21 22 23 23 23 23 22 20 20 20 20 19 19 18 17 15 14 9 6 5 3 2 2 2 0 2 1 6 9 9 7 7 9 10 10 15 15 10 13 15 15 17 18 19 19 18 16 10 5 4 4 6 7 5 4 3 3 2 1 1 2 1 3 2 2 2 1 0 3 4 4 4 2 11 12 9 11 16 14 13 13 13 12 10 7 7 7 7
21 22 23 23 23 23 21 20 20 21 21 21 20 19 17 15 14 9 4 3 1 3 3 0 2 1 3 8 8 7 5 9 10 8 8 13 16 14 14 11 9 13 15 17 18 14 9 5 3 3 2 4 5 5 4 2 1 0 1 1 1 1 4 3 1 3 2 1 1 3 2 4 4 13 15 10 11 14 12 12 14 13 10 8 8 8 7 8
21 22 22 23 23 22 21 20 20 22 22 22 21 21 18 14 11 5 2 3 4 3 2 2 1 1 4 7 5 8 9 9 11 8 8 12 15 15 15 10 6 7 6 8 9 6 3 2 1 1 0 2 5 5 3 3 5 5 3 2 3 3 5 4 3 4 3 1 1 2 2 3 4 13 14 8 8 12 12 13 13 12 10 8 8 8 7 8
22 22 23 23 23 22 21 20 21 22 23 22 20 20 16 8 4 3 5 4 3 1 2 2 2 1 4 6 7 12 8 7 9 6 5 10 12 11 13 12 6 5 4 2 3 3 3 0 0 2 2 3 5 5 5 6 7 10 7 4 5 5 4 3 3 4 5 5 3 3 3 4 4 11 10 4 4 11 13 12 12 11 9 8 8 8 7 8
22 23 23 23 23 22 21 21 21 22 22 22 21 16 8 3 3 2 2 3 4 6 6 4 6 3 6 7 9 11 4 4 3 4 6 8 8 5 5 7 4 3 4 3 3 3 3 3 2 5 5 6 6 8 8 6 8 10 6 5 6 5 3 2 3 4 3 4 4 3 5 4 3 5 2 5 4 10 14 13 12 11 9 8 9 9 7 8
22 23 23 23 23 21 20 21 20 21 22 21 18 9 1 1 1 3 3 3 8 11 10 8 10 8 10 10 11 10 3 2 2 3 7 6 6 4 2 3 4 2 4 5 4 2 2 4 5 8 8 9 9 8 7 6 9 9 6 5 5 3 3 2 3 5 2 1 4 5 7 4 1 3 6 7 3 10 14 15 13 13 11 8 11 11 8 7
23 23 24 24 23 21 20 20 19 20 20 17 11 2 4 7 6 4 3 4 11 10 11 11 9 9 13 17 21 16 2 2 4 4 6 5 4 4 2 2 4 4 4 4 3 1 2 4 9 11 9 10 9 6 6 8 10 7 5 5 4 3 4 4 2 3 1 1 3 6 6 4 3 5 6 7 4 5 10 14 15 14 12 10 12 12 8 7
23 24 25 24 22 21 19 19 20 19 14 11 7 5 9 17 16 11 4 2 10 9 6 8 7 7 9 13 17 13 3 2 3 5 6 7 3 4 4 2 4 5 4 4 4 3 3 7 12 12 9 9 10 6 6 8 7 6 5 5 4 5 5 2 2 3 1 1 2 7 5 2 3 5 5 6 6 1 5 9 13 14 13 13 13 11 9 9
23 24 24 24 22 19 18 19 17 11 10 13 13 11 17 24 21 14 4 1 7 7 5 8 7 5 7 9 8 6 3 3 4 4 8 9 4 3 4 4 5 4 4 6 6 6 8 11 10 10 9 10 10 7 7 6 4 6 7 5 6 9 6 3 6 6 4 2 2 7 5 1 5 6 4 5 6 1 4 6 11 10 11 14 13 11 10 10
23 24 24 24 22 18 18 17 8 6 13 16 15 16 22 23 17 7 0 1 4 4 4 6 4 2 6 8 6 5 2 3 3 5 8 9 6 4 2 3 4 5 7 7 6 6 11 11 5 7 10 10 9 7 10 9 5 5 7 7 10 12 6 9 13 8 4 2 3 6 4 3 7 7 4 4 5 1 2 5 11 8 7 13 12 11 11 11
24 24 24 23 20 17 14 8 4 10 15 12 12 21 22 21 16 3 3 3 3 4 3 1 2 2 3 4 4 3 2 2 4 7 10 10 7 5 1 2 1 5 7 5 5 3 8 8 6 9 12 9 8 6 10 11 7 3 5 8 11 10 10 13 14 7 3 4 4 4 4 3 5 7 6 5 5 2 1 4 10 7 7 11 11 10 11 11
24 24 23 21 20 17 9 5 9 13 9 7 17 23 21 22 19 4 2 3 3 3 2 1 1 1 3 5 3 4 2 3 3 5 10 11 6 4 2 4 1 4 3 1 3 4 6 7 7 11 11 8 7 5 9 11 7 3 6 13 13 11 12 12 9 4 3 4 3 2 1 3 4 7 6 5 5 3 3 5 8 5 6 11 10 10 13 12
23 23 22 19 18 16 9 9 13 10 5 11 21 22 21 24 18 4 4 2 2 2 1 1 1 1 2 4 3 3 3 1 2 2 7 10 7 4 3 5 3 5 3 1 4 6 5 6 8 11 9 7 6 5 10 10 4 2 10 15 11 11 10 7 5 3 3 4 4 3 2 3 3 3 3 5 6 6 5 7 8 5 5 9 10 11 14 13
23 22 20 18 16 13 10 11 11 7 9 17 22 24 23 19 10 4 4 2 1 2 1 1 1 1 1 2 3 3 2 2 2 3 3 6 5 2 3 5 3 5 5 5 6 7 6 7 8 8 7 8 5 5 11 12 7 7 15 15 11 10 7 5 4 3 3 2 3 6 5 3 3 2 4 6 7 7 6 6 7 6 5 7 8 11 13 12
23 21 18 16 12 9 10 12 12 9 11 17 22 24 19 10 5 5 3 1 2 3 1 1 0 2 4 3 1 3 2 1 2 1 0 3 2 2 2 3 2 4 6 4 5 8 9 8 5 6 7 7 6 8 11 14 15 15 15 13 10 7 5 4 2 3 3 1 2 6 8 4 2 4 6 6 6 7 7 6 5 5 6 6 6 9 12 11
21 18 16 15 10 7 6 8 8 7 10 17 23 20 11 4 4 4 1 1 2 3 1 1 1 3 6 4 1 2 2 1 1 1 1 2 2 2 1 2 1 2 4 4 5 6 7 7 5 4 6 8 10 10 12 15 16 14 10 8 8 4 3 4 3 3 2 2 1 5 8 6 4 4 6 6 6 6 7 7 8 7 6 6 5 7 11 11
19 16 14 13 10 10 9 7 7 10 15 19 19 10 4 4 3 1 2 3 1 2 2 2 3 4 6 4 1 1 0 1 2 1 2 1 1 1 2 2 1 2 3 3 3 5 5 5 6 4 5 13 14 10 10 9 8 10 8 6 6 3 2 2 1 1 1 2 0 3 7 6 5 3 5 8 9 10 9 8 9 9 9 8 6 7 9 10
17 13 12 11 10 13 15 13 13 16 17 17 11 4 5 5 2 3 3 3 1 3 3 1 4 5 5 4 2 2 2 2 3 1 1 3 2 3 5 5 5 3 2 3 3 4 4 5 5 2 4 11 14 11 7 4 5 9 9 5 4 4 2 1 2 1 1 1 2 1 6 4 4 2 6 10 11 12 12 10 9 8 7 7 5 6 8 10
15 11 10 10 11 13 14 13 15 15 14 12 6 4 5 3 3 3 3 4 3 3 3 3 1 3 5 3 5 4 2 3 4 1 2 2 1 2 5 4 4 5 2 2 3 2 2 4 4 4 6 9 12 11 11 9 7 8 6 4 4 4 4 3 3 2 2 1 2 1 4 4 2 2 4 7 8 9 9 8 7 5 4 4 2 2 7 10
14 10 10 10 11 12 11 11 13 12 8 6 5 5 3 1 3 2 3 4 3 4 5 6 3 4 3 1 3 5 4 2 4 2 4 2 0 3 3 3 4 4 2 1 3 2 1 4 6 4 5 11 12 8 10 11 6 3 3 3 2 4 5 4 2 3 4 2 1 1 2 3 3 3 3 4 6 8 8 5 6 7 8 9 4 2 5 9
12 10 9 9 11 10 8 9 11 8 0 5 5 3 1 3 3 2 3 4 3 4 5 6 5 4 2 3 2 2 3 1 2 3 2 2 2 4 3 3 2 4 4 2 3 1 1 4 6 4 2 8 13 10 10 11 5 1 2 2 3 2 6 6 2 2 4 2 1 2 2 2 1 2 3 6 7 9 9 8 7 8 10 12 8 4 4 7
13 9 7 9 12 9 7 8 8 6 4 6 3 1 3 3 3 3 4 5 4 3 3 4 3 2 2 1 2 1 2 1 3 2 2 4 3 4 2 4 4 4 5 2 1 2 2 4 7 3 2 3 7 9 8 9 8 5 2 5 2 1 3 5 3 1 1 1 1 2 4 2 1 1 3 8 9 10 12 11 9 7 7 10 9 6 4 5
12 8 7 10 11 9 8 8 8 8 5 4 1 3 3 3 4 4 6 5 4 3 4 2 2 1 1 1 1 1 2 2 2 1 1 2 3 3 2 3 5 1 2 2 1 1 2 2 7 4 5 3 3 6 1 5 5 8 6 7 4 2 1 3 3 3 2 1 1 2 3 3 4 3 4 9 11 12 13 12 10 9 8 10 10 8 5 5
7 5 4 8 9 9 10 10 8 6 5 2 1 3 2 4 7 8 7 4 3 4 2 2 2 1 0 1 0 2 1 3 4 3 1 0 2 3 2 2 4 6 6 4 1 3 1 1 5 5 2 6 4 4 1 5 3 4 4 4 3 2 3 3 2 3 4 2 1 1 0 3 4 4 7 10 11 12 13 12 11 10 9 10 11 9 6 5
2 4 4 7 6 9 12 11 7 4 2 1 2 3 3 6 8 7 5 4 3 2 1 2 2 2 1 1 1 1 0 3 4 4 2 1 2 3 3 1 4 7 5 7 5 4 3 1 3 7 2 6 4 4 6 5 5 3 3 2 3 0 2 2 1 2 4 4 2 1 0 4 4 3 8 10 10 11 13 12 11 11 11 10 11 10 8 6
3 3 4 7 8 8 15 9 2 1 2 3 3 4 6 6 6 5 8 7 2 1 1 1 1 3 2 2 2 1 1 2 2 4 2 1 1 2 3 2 1 4 4 5 4 3 2 2 2 5 4 1 3 5 7 8 7 6 4 4 5 2 3 3 0 2 2 4 3 3 2 5 3 3 6 8 9 10 12 12 10 11 11 10 9 9 7 5
2 1 6 9 6 10 14 5 2 3 2 4 4 5 7 7 5 2 5 5 2 2 1 1 1 3 1 1 1 2 2 1 1 3 3 3 4 5 5 2 1 1 3 2 3 3 1 1 2 3 3 4 8 8 4 7 6 5 5 5 5 4 4 5 3 3 2 3 2 3 1 4 3 3 5 6 8 10 12 11 9 8 8 9 7 6 5 2
2 2 10 12 7 5 5 1 3 1 2 6 6 6 7 5 3 1 3 4 3 3 3 3 2 2 1 1 1 2 2 1 2 2 4 5 5 8 6 5 4 1 4 1 3 3 1 2 3 4 5 5 7 7 4 3 1 1 2 3 4 4 4 5 5 3 4 3 2 3 1 3 4 2 5 6 7 8 10 11 11 9 7 8 8 7 5 1
1 4 7 11 10 3 3 2 3 3 4 5 6 6 4 3 1 1 3 2 2 2 3 3 2 0 1 1 1 1 2 2 1 1 1 2 2 5 3 4 4 2 2 1 2 2 2 1 3 3 5 6 7 8 7 5 4 1 4 5 3 6 5 3 1 3 3 4 5 4 1 4 4 1 4 6 7 8 8 9 11 10 8 8 8 8 6 1
3 2 4 8 9 3 4 4 3 4 5 5 7 6 4 3 2 1 3 1 1 1 1 2 2 1 1 2 3 3 4 3 1 2 3 1 2 2 2 5 4 1 0 3 4 3 1 1 3 3 3 2 2 3 3 4 4 3 4 5 4 5 5 4 2 4 2 3 4 4 3 3 2 2 4 5 7 7 7 7 8 8 9 9 8 8 6 2
2 1 2 5 5 2 1 2 1 1 3 4 6 5 2 2 3 1 2 1 1 1 1 1 2 3 3 4 5 5 5 4 3 3 4 4 4 3 4 7 5 4 5 3 5 5 1 1 2 5 5 4 4 6 6 4 3 5 6 9 9 5 2 6 4 4 4 4 3 3 3 5 2 2 4 5 6 7 6 7 7 6 7 8 7 9 9 5
1 1 2 3 3 4 4 4 4 4 6 6 4 3 2 3 3 1 2 0 2 3 2 1 1 2 1 2 4 3 5 5 5 4 3 4 3 4 6 7 6 7 8 6 5 5 2 3 3 2 2 1 4 5 5 3 3 5 7 10 11 9 7 8 4 5 5 6 2 4 4 6 2 2 4 3 4 5 5 5 5 6 8 9 8 10 11 8
1 1 1 2 1 2 3 5 5 7 10 8 4 2 3 5 3 1 1 1 3 4 2 2 4 2 3 4 3 2 5 5 5 5 3 3 4 4 7 6 5 7 8 5 4 4 4 3 6 5 7 9 9 10 10 7 6 8 10 13 14 13 11 9 4 3 6 6 3 6 12 9 4 5 6 4 5 7 7 6 5 4 3 6 10 12 12 10
2 2 3 2 1 2 3 6 8 8 9 6 3 0 0 3 5 2 1 2 2 3 3 1 4 3 5 5 4 2 2 2 2 4 2 3 4 2 4 5 5 6 6 4 4 2 4 2 7 6 7 9 11 12 11 9 10 12 12 12 15 16 14 12 10 11 13 11 8 12 16 11 6 6 7 7 7 8 8 8 8 8 7 5 2 6 9 8
2 2 3 3 3 4 4 5 6 6 6 3 2 2 1 1 3 3 2 3 2 2 3 2 3 3 6 6 6 3 1 5 2 3 1 3 4 1 1 2 4 4 5 4 3 3 3 2 5 6 6 4 6 7 11 13 14 15 13 12 14 17 16 14 12 10 11 11 11 13 14 9 5 4 7 7 7 8 9 8 8 8 7 7 6 4 3 3
5 5 4 2 3 4 3 3 4 4 4 3 1 3 1 1 0 1 1 1 4 4 3 2 3 4 6 8 8 5 2 2 1 4 2 2 3 2 2 2 2 3 4 3 2 3 3 2 3 6 4 3 5 4 5 11 14 15 14 15 13 15 14 11 10 8 6 7 10 12 10 4 4 3 6 8 9 10 9 7 6 6 6 7 6 4 6 7
9 6 4 1 3 4 3 3 4 3 2 4 4 3 3 3 1 3 2 3 2 5 2 3 4 4 5 8 6 4 3 2 4 5 3 3 4 3 3 4 1 1 1 0 1 2 2 2 3 5 2 3 6 4 0 6 10 9 7 10 9 10 12 11 12 13 10 6 8 7 4 2 4 4 6 9 10 10 6 5 4 5 5 5 4 5 7 6
Wind_Direction
2 360 358 356 354 352 351 349 346 345 346 341 337 334 331 330 326 323 322 322 323 322 324 326 326 327 329 338 343 339 330 320 315 295 243 260 264 216 187 165 172 188 190 189 196 198 180 187 207 207 210 221 214 219 186 159 138 112 73 55 246 204 201 223 172 142 146 121 137 146 99 69 307 263 276 240 140 134 135 133 131 115 116 132 137 139 141 141
5 3 1 358 356 353 351 349 347 347 347 346 344 342 339 337 331 329 327 326 328 327 330 329 329 332 336 347 348 339 328 320 308 276 253 259 248 199 189 172 161 188 197 195 200 198 176 185 204 197 189 201 219 198 168 170 98 99 91 54 248 190 181 198 131 121 161 120 140 160 125 123 263 49 305 221 147 134 132 132 125 118 125 134 137 141 142 141
6 4 2 359 357 355 353 350 349 348 348 350 349 346 345 344 340 338 337 336 336 335 335 333 335 338 346 354 351 342 326 322 300 263 278 252 215 194 189 184 166 183 197 194 197 201 198 211 209 186 177 222 231 180 169 203 117 93 84 24 271 195 153 173 138 147 194 134 116 128 97 126 208 101 328 217 149 142 143 142 134 133 143 142 139 143 143 143
6 5 3 2 359 356 353 352 351 350 351 351 351 352 349 346 344 341 341 342 341 340 339 340 344 348 358 359 353 345 327 326 296 258 4 46 202 184 182 183 170 181 197 194 200 208 220 262 272 217 198 237 223 166 172 199 166 98 103 207 264 194 127 168 152 160 183 148 124 143 162 196 202 125 247 196 149 147 154 150 144 145 149 145 140 144 147 148
7 5 5 4 1 358 355 353 351 351 352 350 350 353 350 347 345 342 340 338 339 338 340 344 347 354 358 354 353 345 341 60 261 257 3 50 183 183 182 177 173 184 191 199 208 212 229 270 292 251 234 236 198 162 178 175 138 98 157 204 240 314 235 161 156 160 151 130 141 159 183 178 161 164 225 191 154 155 156 148 147 147 147 146 142 144 148 150
6 5 5 5 3 360 357 355 353 352 351 351 350 351 353 352 348 347 343 338 338 337 340 347 350 357 353 345 351 342 13 131 268 251 213 72 142 181 183 174 175 185 193 203 205 206 220 227 225 222 239 223 178 170 166 150 134 125 182 193 188 238 235 135 144 143 121 130 161 162 181 157 142 217 263 206 161 148 143 142 145 143 142 145 143 142 147 150
2 3 3 4 3 1 359 357 356 354 351 350 350 350 353 354 353 352 348 343 340 337 340 348 356 2 356 356 359 15 96 270 275 228 225 154 129 165 176 175 178 185 197 198 194 199 194 190 209 215 226 222 179 172 144 147 181 127 123 205 186 215 138 136 143 131 129 152 169 136 143 151 155 171 335 300 144 135 137 138 139 138 140 144 144 143 147 150
359 360 0 2 1 360 359 358 356 355 351 351 351 351 353 355 357 353 350 346 338 340 341 350 3 9 7 14 6 357 262 252 232 172 203 181 139 157 168 176 184 190 200 200 197 192 185 203 223 216 217 225 178 158 144 145 187 134 146 212 169 85 122 135 132 137 149 154 150 117 144 223 183 129 348 186 141 134 138 136 136 139 142 145 145 146 150 157
356 357 358 359 359 358 358 357 355 353 351 351 353 353 353 354 358 356 352 345 339 342 343 351 3 19 18 7 20 358 291 253 178 171 190 178 158 165 172 179 189 196 201 205 204 196 198 209 212 213 219 222 165 150 154 149 195 179 162 169 139 112 140 131 124 133 139 138 87 98 188 227 204 140 63 153 140 134 136 136 139 142 145 149 148 153 160 166
354 355 356 356 356 356 356 355 354 351 350 351 353 354 353 352 354 355 352 350 347 341 345 358 5 24 28 13 58 13 295 9 156 188 185 180 175 176 185 192 194 195 196 202 207 207 215 217 221 260 258 244 161 152 168 171 171 144 128 119 108 80 33 97 118 109 112 119 97 147 227 212 184 149 130 144 137 134 136 137 142 145 149 151 153 163 168 168
352 353 353 353 354 353 353 353 351 350 348 348 352 352 350 348 347 352 355 354 348 338 344 358 10 31 44 71 97 242 247 103 113 201 189 183 181 186 197 203 199 193 189 193 211 215 222 240 267 309 286 296 112 142 151 118 116 121 117 100 89 86 44 33 88 97 105 114 91 216 231 179 162 164 147 145 142 138 138 141 146 149 150 154 161 170 173 169
351 350 350 351 351 351 351 350 349 348 346 347 349 348 347 345 343 349 354 354 345 334 337 350 41 49 27 76 195 238 262 309 320 276 221 204 180 185 205 204 201 196 190 186 216 221 224 239 248 255 267 356 90 140 101 94 109 103 92 94 96 97 74 8 56 69 81 109 316 289 155 123 158 170 149 146 145 142 141 144 149 153 154 158 167 173 177 168
349 348 348 348 348 349 349 347 347 345 343 344 345 344 345 340 338 344 347 347 339 327 328 341 66 35 32 291 247 268 293 294 300 290 241 226 191 129 186 201 205 204 200 197 215 222 226 239 241 239 258 307 106 135 97 90 97 75 39 27 95 97 62 338 13 346 48 306 308 313 150 150 181 159 153 151 146 144 143 147 152 156 160 164 170 177 178 163
348 347 346 346 347 347 346 344 344 342 339 340 341 341 340 334 331 333 336 332 330 330 333 28 61 80 93 265 278 303 316 298 291 280 238 219 205 165 183 202 213 214 210 213 223 233 245 258 262 255 258 159 132 113 89 54 43 76 59 359 327 125 148 332 344 345 72 267 318 17 139 149 140 134 137 153 149 148 146 151 158 159 163 167 171 175 170 158
347 346 344 344 345 344 343 342 340 337 334 334 336 337 335 330 319 317 327 318 320 315 280 55 183 122 33 280 287 313 320 299 268 257 235 214 203 183 193 203 213 220 218 222 236 249 258 267 271 251 231 125 123 104 86 57 37 58 93 14 305 94 134 300 316 343 101 261 348 37 133 124 128 132 135 237 163 150 151 156 160 160 163 166 169 167 159 157
346 345 344 343 342 342 341 339 337 331 328 330 333 334 334 324 309 314 320 297 288 248 207 74 174 167 32 284 296 312 290 264 253 252 243 224 215 208 204 203 211 220 223 229 239 250 258 269 267 218 165 132 130 114 87 64 49 4 77 130 308 41 159 202 308 318 355 356 16 33 137 135 138 155 171 220 185 154 154 158 158 161 163 162 164 160 154 154
346 344 343 342 340 340 338 336 333 326 324 328 331 333 331 315 307 317 314 275 229 206 191 40 324 141 265 278 300 312 260 240 254 253 233 226 229 222 199 194 213 218 225 237 243 250 257 257 237 211 148 135 138 123 98 77 151 24 44 136 133 190 186 153 213 269 337 347 43 32 106 137 150 171 180 212 191 159 154 156 157 160 159 158 160 154 152 155
345 343 342 341 338 337 335 334 330 324 324 328 332 332 326 314 313 337 114 135 120 160 207 272 307 82 270 279 295 296 280 241 234 234 221 218 227 219 192 187 210 203 217 248 249 243 236 256 220 148 76 165 144 128 144 190 179 169 179 167 148 196 209 180 184 202 156 124 141 105 124 98 134 177 189 218 192 160 156 155 156 160 155 156 159 152 150 154
344 342 341 339 335 334 335 333 329 326 324 324 330 329 323 322 344 61 118 123 114 159 290 236 179 142 280 279 285 288 277 199 197 208 204 204 217 218 193 190 192 168 168 240 261 233 194 338 39 166 222 222 177 163 188 200 177 170 173 161 156 172 196 188 164 175 161 130 154 179 128 91 160 185 193 247 208 162 156 156 156 160 155 155 160 153 149 158
343 342 340 337 333 334 335 333 329 327 324 323 331 335 330 4 22 26 116 171 204 235 270 231 184 231 283 276 283 285 258 166 183 189 193 205 212 217 194 184 166 151 164 186 243 254 163 139 203 205 209 218 205 196 199 193 163 154 156 161 160 154 149 153 137 175 185 135 177 181 95 106 197 203 245 311 232 166 156 158 159 162 157 156 163 159 155 169
342 341 339 334 332 336 336 332 328 325 323 324 334 346 286 160 2 330 330 258 241 230 242 237 200 217 257 259 273 278 266 34 336 214 211 213 184 171 213 167 141 192 212 201 228 266 154 169 214 216 210 216 219 211 197 170 148 147 154 155 148 145 127 79 116 174 224 96 171 136 110 134 234 271 308 329 251 175 161 162 161 163 160 155 165 165 164 176
343 341 337 333 333 338 336 331 328 324 322 327 339 351 242 275 277 302 356 298 281 249 229 241 221 226 249 255 265 268 259 53 309 277 208 181 152 169 212 127 140 218 234 202 207 231 195 218 228 220 210 218 229 222 185 163 150 147 148 139 137 143 113 69 93 174 266 336 154 133 129 148 187 244 296 333 290 182 157 164 164 163 159 157 168 170 170 173
343 340 336 333 334 339 336 330 326 321 323 330 317 256 290 310 300 300 339 284 289 281 231 235 230 233 246 256 260 252 205 154 250 274 201 166 150 171 162 155 185 218 223 190 180 171 209 233 229 221 207 212 229 226 188 171 155 150 149 140 153 167 157 136 172 169 85 22 131 125 112 107 179 253 305 320 287 210 127 158 166 165 158 161 172 170 169 170
342 339 335 333 334 340 336 328 323 321 332 321 295 294 324 328 313 299 320 203 282 289 248 228 220 224 236 248 242 200 184 189 186 240 203 163 143 164 162 182 193 215 224 205 188 185 228 236 222 219 213 209 221 215 188 179 165 173 170 151 156 178 189 130 140 152 106 55 84 112 100 122 192 233 279 301 292 332 89 139 168 176 160 162 172 168 166 168
341 339 335 333 336 340 334 327 316 325 332 309 298 327 337 336 327 296 184 26 288 288 269 233 207 210 224 222 197 164 184 223 200 214 193 169 158 154 186 190 171 215 229 216 201 208 241 241 207 221 228 213 217 206 189 185 166 186 197 177 165 169 153 113 134 150 124 158 209 144 141 190 200 219 235 282 289 330 51 149 168 181 164 164 172 167 165 166
342 338 334 334 335 337 335 324 297 323 325 303 318 339 334 336 339 298 140 32 305 287 307 243 166 202 199 181 175 135 105 275 244 187 181 197 188 137 208 262 162 220 220 208 208 214 242 232 187 215 232 222 218 205 194 183 153 193 202 157 147 140 126 134 148 156 139 172 199 170 157 150 199 226 218 231 255 248 322 179 169 171 171 172 173 167 165 165
341 337 335 333 332 338 337 290 304 319 316 312 335 341 335 337 337 311 125 32 317 286 284 238 169 199 178 183 167 94 111 289 305 167 178 202 194 117 190 250 301 245 228 166 227 233 228 215 190 210 226 223 216 213 203 182 155 204 160 132 131 130 137 147 148 142 126 123 124 156 117 111 200 231 203 204 252 249 232 201 177 170 177 178 177 169 166 166
339 337 333 330 331 334 324 297 305 308 306 329 337 340 338 335 336 357 99 51 336 319 261 212 164 198 184 169 130 109 202 230 35 220 204 196 186 123 189 229 237 256 275 200 245 260 231 205 195 201 209 217 220 206 182 156 120 144 126 119 122 125 132 134 113 95 107 116 142 190 149 132 208 228 151 176 233 238 220 208 192 184 190 183 179 174 168 167
338 336 328 326 328 326 318 303 292 290 317 333 338 338 336 336 349 59 85 64 329 284 273 83 118 196 207 131 141 213 234 107 148 238 225 205 209 122 178 219 229 276 271 204 226 268 256 222 200 182 193 215 208 163 148 126 100 102 103 96 90 93 93 87 89 82 85 122 181 192 180 169 204 198 164 185 222 226 213 211 202 190 195 187 179 176 170 167
336 333 323 320 321 317 315 299 281 285 313 328 335 336 337 348 40 66 44 26 266 266 236 76 340 171 151 123 193 245 228 167 198 218 145 232 280 60 181 215 200 279 282 243 242 258 259 253 218 175 195 202 149 124 119 114 118 111 95 89 84 73 63 62 47 62 82 245 224 193 195 193 205 202 192 189 200 205 197 203 207 196 200 193 180 177 172 168
335 329 316 311 306 294 300 292 283 296 309 323 334 339 348 19 73 78 49 236 261 285 253 190 246 165 155 152 187 259 247 259 313 24 300 284 5 34 347 348 354 309 321 310 284 273 272 270 247 209 182 146 118 108 106 113 122 112 103 114 101 61 24 40 1 31 103 220 219 191 198 202 220 217 200 186 171 184 196 199 199 196 204 198 181 178 175 172
336 324 307 300 288 265 251 250 284 302 308 324 338 348 42 43 28 96 257 294 345 275 251 208 207 188 170 161 111 46 88 325 313 241 197 175 101 198 200 188 176 4 334 287 297 309 289 257 244 243 137 123 114 106 108 117 122 113 121 132 106 80 24 32 316 331 155 215 351 189 191 201 239 228 191 187 179 188 200 204 199 194 199 197 183 181 176 172
339 322 307 295 279 263 255 263 283 290 306 332 351 27 82 60 336 240 258 294 266 232 249 230 203 171 129 115 74 31 27 340 308 249 169 155 167 241 243 212 171 147 246 270 336 326 299 296 278 243 132 125 123 124 135 148 147 138 144 150 124 124 115 123 230 232 202 222 8 132 174 189 269 247 189 191 190 192 195 201 205 196 199 201 182 179 177 172
343 331 319 298 277 265 258 265 274 281 311 344 16 58 59 56 259 265 275 265 264 284 316 335 264 128 95 122 176 153 84 317 286 326 38 69 131 275 278 260 211 189 209 309 316 253 242 302 276 206 163 140 133 144 158 157 161 163 151 133 140 157 154 163 196 187 171 171 34 46 169 177 223 231 199 190 187 190 189 191 192 176 197 247 279 189 183 173
347 335 328 305 280 263 250 255 266 277 316 7 52 65 65 229 251 276 271 260 292 321 330 349 15 92 73 298 198 140 118 253 277 357 31 53 343 292 288 278 243 187 119 6 270 242 208 252 250 229 167 145 142 157 151 136 153 201 133 113 184 195 146 127 160 159 138 126 111 189 218 206 191 193 189 175 179 186 181 164 154 155 181 212 238 259 203 179
351 340 331 303 280 261 245 252 255 252 354 66 53 40 181 224 235 210 251 271 306 322 339 356 14 62 43 313 323 52 112 126 45 33 356 1 339 301 271 273 256 163 155 191 241 255 8 275 271 313 353 143 146 155 150 142 151 181 146 194 240 199 128 112 92 92 101 105 162 200 239 275 232 213 172 162 177 184 179 171 165 161 173 191 200 221 229 192
357 348 324 289 275 251 242 253 228 185 104 79 78 240 234 240 228 217 265 292 306 332 34 26 355 43 54 323 327 41 143 87 60 70 335 354 323 283 286 288 261 189 177 179 277 219 140 292 284 273 279 217 149 140 158 170 147 120 201 225 215 30 81 98 104 86 92 120 182 210 233 231 198 246 161 160 175 184 183 179 171 163 167 183 192 200 222 208
352 350 311 273 251 232 248 246 189 145 89 64 111 245 235 233 247 258 268 283 319 28 72 54 322 331 95 82 306 253 136 98 76 98 2 4 290 281 339 292 268 296 48 77 286 250 117 313 291 250 188 208 101 95 142 247 160 138 187 200 161 129 107 103 121 152 148 159 219 222 241 222 200 211 185 178 184 184 182 180 172 170 175 187 196 197 206 213
355 12 314 242 215 228 242 212 162 107 59 41 286 263 233 256 274 275 269 284 30 62 60 354 345 343 222 116 346 302 85 119 131 133 131 140 274 296 333 280 288 332 7 52 48 300 28 159 284 301 178 156 107 92 189 269 240 146 151 177 171 140 152 162 157 147 140 149 219 210 324 244 229 205 187 191 190 179 177 178 176 178 182 189 198 197 195 208
37 30 275 246 249 240 210 173 129 70 65 199 234 254 278 287 284 292 326 1 55 106 61 327 3 23 327 337 18 310 19 105 130 129 123 216 251 297 297 265 301 316 358 47 34 324 340 119 280 317 343 141 149 180 181 194 207 170 116 164 208 122 120 155 158 137 128 138 176 144 207 259 253 195 183 188 182 175 175 177 179 186 189 189 194 195 188 193
38 40 249 306 323 209 170 141 109 143 179 237 239 251 270 276 278 325 9 22 54 184 153 137 56 44 21 343 359 305 353 61 114 119 87 307 268 289 267 216 273 321 15 42 13 324 337 1 320 326 341 122 246 239 177 168 187 169 145 180 192 165 120 114 242 264 120 129 168 156 192 268 263 181 186 185 171 169 175 180 185 189 190 190 189 187 179 180
58 74 254 320 342 171 150 117 237 179 174 249 235 244 261 263 259 318 13 21 25 343 7 77 44 36 37 276 344 7 37 64 132 124 132 195 208 223 252 296 327 126 89 70 290 287 279 30 25 322 302 273 270 270 177 170 199 172 165 189 171 151 138 133 193 236 120 114 145 122 153 273 261 185 175 180 174 169 172 181 190 190 190 192 182 166 162 178
101 286 277 311 330 173 144 356 275 232 249 244 245 252 258 267 260 66 30 19 24 13 8 22 30 37 29 275 343 20 64 120 197 163 175 195 203 221 250 334 341 125 82 69 272 296 313 26 18 317 299 303 299 320 48 117 174 120 224 224 149 160 177 161 180 169 129 157 144 81 343 263 266 223 170 174 175 167 170 177 183 186 190 190 177 168 171 205
286 272 278 321 335 291 205 237 255 265 263 262 270 268 273 289 257 81 44 24 29 32 15 359 18 82 235 279 316 314 77 78 250 257 203 186 220 237 247 360 358 26 62 175 214 355 347 11 38 14 349 350 345 352 7 2 10 37 283 290 220 199 186 154 97 84 116 197 161 124 223 252 278 312 138 154 158 163 176 180 179 178 175 175 170 170 174 147
313 263 255 312 327 302 201 194 184 223 266 290 281 284 323 320 277 95 85 34 274 128 95 319 333 4 320 359 9 359 47 65 284 322 9 4 299 300 20 16 0 35 187 197 137 79 17 169 100 91 70 33 356 339 314 309 328 315 315 349 333 254 196 159 94 92 135 216 158 146 197 237 296 37 114 141 147 151 166 171 175 172 167 170 161 159 167 146
1 339 292 312 332 6 254 277 72 227 275 281 275 290 332 293 292 19 86 72 293 86 82 299 349 16 356 16 30 15 18 34 38 26 13 359 328 311 4 12 8 9 355 9 80 89 69 358 116 141 145 165 207 231 245 255 315 337 4 36 22 346 126 124 122 150 168 161 170 230 191 152 147 93 103 125 137 140 144 150 158 159 165 173 161 155 169 174
34 323 341 348 331 351 356 346 15 358 297 270 258 281 295 284 290 342 1 7 127 75 37 314 342 9 350 38 55 17 356 16 30 22 358 351 326 308 350 15 20 8 3 14 52 81 74 342 333 139 119 227 243 262 301 340 36 22 32 50 32 15 53 88 126 190 168 142 179 315 43 95 118 82 88 105 120 116 108 111 129 148 161 170 164 161 169 169
355 312 352 46 289 310 349 321 321 323 302 274 242 254 316 317 309 209 303 296 114 73 46 333 344 33 105 90 89 27 356 18 16 344 329 344 336 341 357 355 352 7 18 24 26 83 108 353 330 360 19 3 4 28 44 62 73 49 44 56 46 30 38 55 65 97 99 111 128 61 61 58 26 39 61 57 63 72 67 57 58 73 114 156 164 167 174 178
1 336 323 7 310 238 261 283 292 308 300 270 240 153 82 326 322 314 101 81 60 41 83 60 345 36 90 85 104 102 21 71 5 312 299 345 333 4 18 335 319 5 33 35 4 71 113 359 338 17 38 15 14 40 61 69 67 52 36 48 59 46 35 39 51 69 80 85 84 76 69 55 22 33 57 60 66 75 72 64 62 54 39 39 122 162 171 176
17 316 324 348 314 265 258 280 299 305 302 299 309 299 212 72 354 359 63 96 92 26 57 61 337 14 66 68 74 62 203 168 173 288 282 15 341 340 53 296 281 336 21 44 359 19 73 1 345 34 55 18 359 43 72 71 70 61 34 27 54 55 37 28 34 50 70 78 71 67 68 56 9 18 57 64 68 70 66 65 70 69 66 56 35 21 43 69
325 290 311 326 284 290 294 299 314 308 308 332 302 270 297 15 140 113 48 46 115 101 53 28 18 18 39 54 49 9 304 171 207 292 282 313 295 248 229 247 245 335 3 29 359 9 42 15 11 46 55 4 344 358 82 80 69 55 29 10 30 55 51 36 32 29 44 77 68 59 62 44 324 359 54 56 60 65 60 58 65 64 74 86 81 59 41 36
347 313 320 316 254 299 324 310 321 332 319 311 295 287 310 307 296 113 86 335 50 99 59 21 69 66 40 39 24 317 305 339 292 268 244 254 272 268 271 286 334 70 257 7 36 36 69 71 57 64 60 335 355 345 7 78 56 36 3 340 358 54 67 51 37 30 28 53 67 61 64 22 342 12 59 59 60 66 57 45 67 75 73 84 98 83 69 60
Height
813 811 810 809 808 807 806 805 804 803 802 801 800 800 799 798 797 797 797 796 796 795 794 793 793 792 791 790 789 789 788 786 785 786 783 774 771 773 774 775 776 778 779 780 781 782 783 785 785 785 789 790 791 791 790 790 791 799 813 823 825 825 821 814 813 812 813 815 813 810 811 816 817 814 807 800 802 804 807 809 807 807 808 810 813 815 818 820
813 812 810 809 808 807 806 805 804 803 802 801 800 799 798 797 797 796 796 795 795 794 793 793 792 791 790 790 789 788 787 785 784 782 775 768 770 772 772 774 775 777 777 778 779 780 782 784 783 784 789 791 790 789 791 791 792 803 816 825 822 818 814 806 807 808 809 812 810 810 811 814 814 816 814 811 811 808 812 815 811 813 813 813 814 817 820 821
812 811 810 809 808 806 806 804 803 802 801 800 799 798 797 797 796 795 795 794 794 793 793 792 791 791 790 790 789 788 786 784 782 776 768 765 768 769 771 773 774 775 776 777 778 778 780 781 781 785 789 793 790 789 795 793 796 803 813 827 820 807 807 803 804 806 806 807 809 813 814 816 811 810 817 815 812 810 814 815 814 818 817 815 816 817 820 822
813 811 810 809 808 806 805 804 803 802 801 800 799 798 797 796 796 795 794 794 793 793 792 791 791 790 790 789 788 788 786 785 779 769 766 766 766 768 770 772 773 775 776 777 778 778 779 780 782 784 790 795 790 789 797 795 796 803 811 823 815 803 806 804 803 804 803 804 809 815 816 816 808 806 815 813 812 815 812 809 809 813 814 813 815 817 820 823
813 812 810 809 808 806 805 804 803 802 801 799 798 798 797 796 796 795 794 793 793 792 791 791 790 790 789 788 788 787 786 788 777 765 767 766 765 767 769 771 773 774 775 777 778 778 780 781 783 786 791 794 792 793 797 792 792 803 809 809 806 804 807 803 800 802 802 804 808 813 814 810 804 806 810 808 812 814 806 804 804 805 808 810 813 816 819 822
813 812 811 809 808 806 805 804 802 801 800 799 798 797 796 796 795 795 794 793 792 792 791 790 790 789 789 788 788 787 787 786 773 765 768 766 766 767 768 771 772 774 775 777 777 778 780 781 785 790 791 792 793 795 796 791 790 802 806 801 802 804 805 802 799 800 801 804 808 809 807 803 804 806 804 804 806 803 798 799 802 803 805 807 811 814 818 820
813 812 811 809 808 806 805 803 802 801 800 798 797 796 796 795 795 794 793 793 792 791 791 790 790 789 788 788 787 787 787 781 768 766 767 766 767 767 769 771 771 775 775 776 776 777 779 782 787 788 790 792 792 792 793 791 790 798 806 802 800 801 802 801 799 800 801 803 804 803 803 803 807 806 801 802 800 797 797 797 801 804 805 808 811 814 817 819
813 812 811 809 808 806 805 803 801 800 799 798 797 796 795 795 794 794 793 793 791 791 791 790 790 789 788 788 787 787 786 776 765 765 766 766 768 767 769 770 771 774 773 775 774 775 779 782 784 784 791 791 786 790 791 793 796 799 805 803 799 800 801 799 799 802 801 801 801 802 805 806 807 806 804 803 797 795 797 798 802 805 808 810 812 815 817 818
813 812 810 809 807 806 804 803 801 800 799 797 797 795 795 794 794 793 793 792 791 791 790 790 790 788 789 788 788 788 779 768 764 765 765 766 767 767 769 769 771 772 772 774 773 775 778 779 780 779 786 785 781 788 789 796 801 796 798 801 800 802 801 800 801 802 802 800 802 807 810 807 806 805 807 804 797 796 797 801 804 806 810 812 814 815 816 818
813 811 810 809 807 806 804 802 801 799 798 797 796 795 794 794 793 793 792 792 791 791 790 790 789 788 789 787 790 788 772 763 766 765 765 766 766 767 768 768 769 770 771 772 772 774 774 773 774 772 778 780 780 786 787 792 793 789 794 799 801 805 803 801 802 802 802 801 803 811 812 807 802 806 812 804 796 797 800 805 806 808 812 813 814 815 816 818
812 811 810 808 807 805 803 802 800 799 798 797 796 795 794 793 792 792 791 791 790 790 790 789 788 789 789 787 791 786 768 764 767 766 766 766 765 766 766 767 767 768 769 770 770 770 769 770 770 773 779 779 780 786 787 786 787 789 794 800 804 807 805 801 802 802 802 803 803 806 807 804 803 808 811 803 796 798 802 808 809 810 813 813 815 815 815 817
812 811 809 807 806 804 803 802 800 798 797 796 796 794 793 792 792 791 791 790 790 789 789 789 789 788 788 789 788 777 765 765 768 768 767 765 765 765 764 766 766 767 767 768 768 766 768 768 769 779 780 777 784 792 790 785 788 793 796 805 809 810 809 804 803 802 803 806 800 801 811 813 812 811 806 800 798 799 803 809 811 812 813 813 815 815 816 816
811 810 808 807 805 804 803 801 799 798 796 796 795 793 793 791 791 790 790 790 789 789 788 788 788 787 789 786 775 766 764 764 766 768 767 765 765 764 764 766 766 767 767 766 766 765 768 769 771 777 774 777 789 789 786 785 789 796 802 811 814 817 819 808 804 804 803 807 799 802 822 826 817 810 802 799 799 802 807 810 811 813 814 814 815 815 816 815
811 809 808 806 805 803 802 800 799 797 796 795 794 793 792 790 790 789 789 789 788 788 788 788 788 787 789 781 766 762 764 762 763 765 765 766 765 765 765 765 766 766 767 766 765 765 767 768 770 773 771 776 783 782 788 794 797 803 808 815 817 823 825 811 806 808 807 807 798 802 823 827 816 809 805 801 800 804 810 811 812 813 814 815 815 815 817 815
811 809 807 805 804 802 801 799 797 796 795 794 793 792 790 789 788 788 788 788 787 788 787 788 788 787 789 779 764 762 763 762 762 761 762 765 764 765 764 765 766 765 766 766 766 765 766 767 771 776 775 772 778 790 801 805 807 810 816 823 822 823 826 815 808 809 810 807 799 804 822 827 817 812 810 806 803 804 809 812 812 813 813 814 815 815 817 816
810 808 807 805 803 801 800 798 796 795 794 793 792 791 789 788 786 787 788 786 787 787 787 788 787 788 790 778 763 761 762 761 760 759 761 762 763 763 763 764 765 765 766 765 765 765 765 768 770 771 774 777 786 798 806 813 818 816 818 827 827 826 828 822 813 809 808 809 805 807 819 824 818 813 809 807 806 805 809 812 812 813 813 814 815 815 816 817
809 808 806 804 802 801 799 797 796 794 792 792 791 789 788 786 784 786 786 786 787 786 787 788 787 789 784 770 764 764 760 759 759 758 759 760 761 762 762 764 764 764 765 764 765 765 766 770 771 771 774 780 788 796 812 827 828 823 823 826 827 827 828 826 820 811 806 810 811 811 815 818 815 812 808 806 805 805 809 812 812 812 813 813 814 815 816 817
809 807 805 803 801 799 798 796 795 792 791 791 789 788 786 784 784 785 785 785 786 786 788 788 787 792 784 768 766 764 758 758 757 757 758 758 760 761 762 763 763 764 768 769 768 768 770 771 773 779 782 784 788 797 814 823 818 820 825 825 826 827 826 826 821 811 807 812 814 815 816 816 815 812 809 806 803 805 809 810 811 811 813 814 814 816 817 817
808 806 804 802 800 799 797 795 793 792 791 789 789 787 783 783 783 784 785 786 787 786 787 785 784 788 782 769 762 759 755 755 756 756 757 757 758 760 761 762 763 766 774 779 776 771 773 777 780 788 790 789 789 793 800 801 799 807 814 816 822 826 824 820 815 809 807 813 817 817 818 819 819 814 809 807 804 805 808 809 810 812 813 814 815 815 817 818
807 805 803 801 799 797 796 794 793 791 789 788 787 785 784 786 788 786 785 784 782 778 777 776 776 777 774 766 760 758 757 756 756 756 756 757 757 759 760 762 766 771 777 783 781 772 773 786 791 790 789 786 785 784 785 786 790 799 807 810 815 821 822 816 813 810 806 814 820 817 818 822 822 818 813 808 805 806 808 810 812 812 813 815 815 816 817 818
806 804 802 800 798 797 795 793 792 791 789 788 787 787 788 789 792 790 784 780 772 769 771 768 768 770 766 761 758 757 758 759 758 756 756 756 756 763 766 765 774 781 779 779 779 773 776 791 792 783 780 779 778 779 780 785 790 796 803 810 815 819 821 816 813 811 807 815 821 816 820 824 822 822 816 809 808 808 807 809 812 812 813 814 814 816 817 816
805 803 801 799 797 796 794 792 791 790 789 788 786 788 786 784 785 784 784 784 771 763 766 764 764 766 760 757 757 755 760 764 763 758 755 756 759 767 771 770 780 784 778 778 782 784 788 793 785 775 774 774 776 777 780 786 791 796 802 810 818 819 820 820 815 812 811 817 821 819 823 826 823 822 817 813 811 807 803 804 807 809 812 814 814 815 817 817
805 802 800 797 795 794 793 791 790 789 788 787 786 786 783 779 780 780 783 789 778 762 761 762 763 764 760 758 754 754 762 766 768 762 753 757 763 766 771 775 780 782 780 782 786 794 797 788 774 770 772 775 779 779 781 786 790 796 802 809 818 817 817 822 821 818 816 817 819 820 825 830 828 824 818 814 812 806 803 803 803 804 808 811 811 812 815 817
803 801 799 796 794 793 791 790 788 788 787 785 784 782 779 777 777 779 782 787 783 766 757 756 757 759 759 755 751 755 762 761 763 761 752 757 763 764 770 775 779 782 782 781 783 791 789 774 764 768 772 775 780 781 783 790 794 796 796 801 812 813 809 813 819 820 819 820 818 820 834 838 832 830 823 816 812 806 804 804 805 805 804 806 808 809 812 814
802 800 798 794 793 791 790 789 787 787 786 783 781 779 778 777 775 778 782 789 790 772 757 754 754 755 752 751 751 752 758 759 757 756 751 753 760 765 769 770 776 784 782 779 783 787 780 765 763 771 773 774 780 782 781 786 796 799 793 791 798 804 805 811 817 819 827 833 821 819 842 847 832 830 828 823 818 810 806 807 807 808 806 806 808 809 810 811
801 799 796 794 792 790 789 787 785 786 784 781 779 778 778 777 776 777 783 798 800 778 764 761 758 757 751 752 751 750 764 766 752 748 750 751 753 759 771 771 771 778 777 775 780 780 771 762 763 770 772 773 779 781 776 777 794 802 790 783 791 799 807 814 815 818 830 835 822 815 836 848 839 831 827 826 823 814 811 810 807 808 809 807 808 808 809 811
800 797 795 793 790 789 789 786 786 786 783 781 778 778 777 775 776 775 787 813 808 778 768 765 759 756 752 752 749 757 777 770 752 749 748 751 751 754 770 775 773 774 767 772 783 775 763 762 766 767 769 775 779 779 771 770 788 795 781 780 792 800 809 813 812 819 825 825 824 820 825 841 845 832 823 825 827 820 815 812 808 808 809 807 807 806 806 808
798 796 794 792 790 789 788 787 787 784 782 781 777 777 775 773 774 774 797 826 806 770 766 763 754 751 748 749 750 759 769 762 763 762 745 747 753 755 770 774 773 774 766 776 790 773 758 763 765 764 771 776 772 769 763 766 784 786 776 781 792 799 807 810 812 820 820 823 835 831 823 838 845 829 821 827 831 826 818 814 810 809 809 807 806 805 804 805
796 794 792 791 790 788 787 787 785 782 781 778 776 776 773 772 773 779 807 822 793 765 763 759 755 754 751 754 756 758 758 758 767 762 746 750 752 753 768 767 767 773 766 772 782 770 757 755 753 758 768 770 763 758 755 764 781 782 777 785 794 800 806 811 817 821 821 828 839 833 825 837 844 832 827 832 833 827 818 813 809 807 807 806 805 804 803 804
794 792 791 790 789 787 787 785 782 780 779 777 777 774 771 773 780 802 823 813 785 769 762 760 760 759 759 764 765 761 761 762 760 755 753 756 752 752 759 757 760 770 768 768 771 765 753 745 744 750 755 754 754 756 756 762 773 777 782 793 803 808 810 815 818 819 832 840 837 830 824 832 842 833 825 827 824 818 815 813 809 806 806 805 804 803 802 803
792 790 789 788 787 787 786 784 780 779 779 778 777 771 773 780 791 819 823 793 779 774 763 764 765 760 763 770 771 767 765 764 759 761 765 762 760 762 763 763 767 772 776 773 768 761 753 749 747 742 739 743 753 761 763 764 768 774 787 799 811 821 819 823 826 826 841 847 834 828 823 830 842 831 817 815 811 809 811 811 808 807 806 804 802 802 800 802
789 787 786 785 785 785 785 782 779 779 779 778 777 773 782 797 806 818 807 782 783 781 767 767 765 761 764 767 770 769 769 769 764 764 768 768 770 768 769 774 775 782 789 781 772 766 757 753 748 739 736 740 756 774 778 776 775 779 792 802 819 837 837 839 843 838 842 841 829 825 826 834 836 818 808 809 806 805 806 804 804 803 803 802 801 801 799 800
787 784 784 783 783 782 781 780 778 779 779 777 778 777 790 812 816 807 797 788 786 773 762 764 761 759 764 769 772 769 770 772 764 763 766 768 773 770 768 768 768 781 791 783 780 778 767 756 746 745 746 740 750 776 789 789 785 785 793 801 816 836 846 851 851 843 841 838 828 822 827 836 830 809 801 802 800 800 800 799 799 798 800 800 798 799 799 799
784 782 782 781 780 780 778 779 778 779 779 778 781 786 801 820 813 796 793 787 774 763 760 762 761 762 766 770 771 767 773 775 765 766 770 770 777 777 770 767 765 771 779 782 783 781 782 775 754 747 752 746 748 762 770 777 783 781 779 789 801 810 822 837 841 837 839 839 833 829 830 832 826 808 796 794 794 795 796 796 795 796 800 801 799 799 799 799
783 781 781 779 779 778 777 779 778 779 781 780 786 797 811 818 806 795 790 778 767 765 763 760 762 770 772 769 767 762 769 776 768 769 775 777 783 780 773 769 765 765 776 788 784 774 783 779 750 738 741 742 750 752 750 765 785 780 771 784 794 786 789 811 822 820 828 837 837 834 828 816 807 800 792 792 794 794 796 797 796 798 801 801 802 801 799 799
781 779 779 778 777 776 777 778 778 779 781 784 795 806 808 804 795 790 782 769 768 769 768 768 768 776 781 776 772 767 766 771 773 776 778 779 781 778 774 768 762 762 769 780 779 773 781 774 747 741 741 738 745 747 745 761 779 781 779 785 782 769 775 803 819 814 819 834 833 828 823 811 803 800 793 793 796 796 797 798 797 799 800 801 801 801 800 798
780 779 778 776 775 775 776 777 777 779 781 788 803 807 799 790 782 779 773 765 765 763 772 782 776 777 786 782 778 774 769 772 776 782 785 785 782 776 773 767 759 759 759 766 772 768 775 775 752 745 752 743 735 740 743 745 756 776 786 778 769 770 774 790 817 828 828 834 832 825 823 818 814 810 799 796 800 799 797 797 797 798 799 800 799 800 800 797
779 778 777 774 773 774 775 777 777 779 783 793 804 801 792 785 775 771 768 763 762 763 773 785 779 775 781 783 780 774 772 778 783 789 793 793 786 774 771 769 759 756 755 760 768 762 766 778 761 742 751 747 733 743 757 748 743 758 767 760 766 786 791 792 811 828 831 835 833 825 822 817 812 808 800 798 800 798 796 796 796 797 798 797 796 797 799 796
778 780 779 772 771 773 774 777 777 781 789 799 806 798 788 782 772 765 763 760 762 768 775 780 777 775 776 777 778 773 772 779 784 791 795 795 788 773 767 770 761 756 755 757 766 762 760 778 773 746 742 747 745 757 771 764 750 749 753 757 762 774 786 790 794 803 816 831 831 826 826 815 798 790 790 791 792 792 794 795 794 795 796 794 793 795 797 796
779 784 782 771 771 773 772 775 780 787 796 800 800 793 785 780 771 762 758 758 762 767 773 776 774 777 777 772 773 773 772 776 779 784 789 789 788 777 766 766 763 758 755 755 762 763 759 773 779 758 744 753 760 761 763 763 760 757 763 770 768 765 771 778 782 784 798 819 827 828 827 808 784 777 779 781 784 786 788 790 791 791 791 792 791 792 795 795
781 788 783 769 770 771 771 780 787 791 796 795 792 788 782 777 770 762 757 757 760 761 764 770 772 775 777 774 774 773 773 776 776 780 785 785 788 784 767 760 762 760 759 761 764 765 766 772 779 772 761 762 759 748 743 748 751 754 761 766 766 767 773 786 794 785 784 799 810 815 816 800 778 771 772 774 777 780 782 785 787 787 787 789 790 791 793 793
786 790 780 769 772 771 773 786 789 787 791 789 785 781 776 771 768 765 760 758 762 761 759 765 768 770 773 773 773 772 773 777 777 779 784 783 783 781 765 755 757 757 760 769 768 761 762 768 777 777 770 763 754 741 740 743 742 744 750 752 757 762 768 786 796 785 783 792 793 799 808 796 775 766 767 770 771 773 777 781 784 785 786 787 789 790 791 792
789 788 774 768 773 772 778 790 789 786 788 781 775 773 769 767 767 764 762 763 765 764 764 767 768 769 771 770 770 772 774 776 776 776 779 777 773 769 759 753 756 756 759 769 769 759 760 770 780 780 770 757 746 738 737 741 743 749 749 746 752 757 758 766 770 770 784 793 789 799 808 794 774 764 764 767 768 770 774 776 781 784 784 786 788 790 790 791
791 788 776 769 769 771 782 792 790 788 785 778 775 772 766 764 764 764 766 766 765 766 769 771 769 769 769 767 768 771 773 777 778 773 773 774 768 759 755 754 755 758 760 765 765 763 769 778 784 790 789 778 767 760 755 751 752 759 758 749 748 750 751 757 759 765 783 788 783 794 802 791 775 766 765 767 769 772 774 774 777 780 783 785 786 788 789 790
792 788 780 772 767 770 779 783 783 786 784 780 779 775 770 767 763 760 764 765 763 764 770 771 767 766 766 766 769 770 771 776 778 774 772 773 766 757 756 756 755 757 758 757 756 761 773 779 780 793 806 806 801 793 782 772 765 763 762 754 749 748 751 760 765 772 784 785 779 784 789 788 779 770 770 771 772 775 776 775 776 778 780 783 784 787 789 790
792 790 786 780 772 772 777 775 776 783 784 782 781 775 774 774 766 759 761 765 764 762 766 768 765 766 768 770 775 778 775 775 776 776 776 776 771 763 758 757 757 757 755 753 753 761 774 777 775 784 793 796 796 787 775 773 772 771 768 761 757 753 750 756 766 773 778 782 783 778 778 787 787 779 778 777 775 778 778 777 780 780 781 783 784 787 789 792
796 794 792 793 787 782 781 778 779 784 783 782 782 776 774 775 771 765 763 764 764 763 766 768 766 771 775 775 779 783 780 776 776 777 778 777 773 766 760 757 758 758 755 754 755 763 777 781 776 777 782 782 781 776 769 770 774 775 774 770 767 762 756 760 768 769 768 778 788 784 780 791 793 784 782 782 779 780 782 782 784 783 782 783 785 788 790 793
797 795 791 794 796 794 791 786 783 785 782 779 776 774 775 775 774 772 768 764 763 764 771 774 772 773 774 774 780 785 783 782 783 781 779 777 775 772 766 761 759 758 757 758 759 764 779 786 778 777 784 785 779 774 772 773 776 776 775 773 771 770 769 772 773 769 770 782 793 792 791 798 797 788 785 785 783 785 788 787 786 786 785 784 785 787 790 792
797 797 792 790 794 795 793 788 785 785 782 776 773 773 775 777 776 772 768 768 769 768 772 779 778 773 772 773 777 784 786 788 789 785 780 779 778 777 776 771 765 760 760 764 764 764 777 787 781 780 792 793 783 778 776 776 777 779 778 776 774 775 778 778 777 774 777 787 793 792 796 803 800 793 789 786 785 786 787 787 787 789 791 791 791 791 790 792
801 802 799 796 795 792 789 787 785 786 781 775 775 773 771 774 776 771 767 770 776 774 773 779 779 773 772 774 777 783 783 782 786 784 780 781 781 778 779 777 770 765 764 767 768 767 776 788 784 783 794 796 785 781 780 778 782 787 789 783 777 779 784 784 783 781 783 790 792 790 797 804 798 792 791 788 786 787 788 790 791 791 791 794 797 798 796 797
804 802 801 802 800 791 787 787 785 786 782 776 776 774 771 773 773 770 768 766 770 774 773 776 777 774 773 776 779 782 778 775 779 777 774 778 778 775 775 773 770 770 770 770 771 771 776 785 786 790 802 800 788 786 786 781 782 792 801 799 790 788 793 795 793 790 790 794 795 796 804 808 799 793 793 792 790 792 793 794 795 794 792 792 796 798 801 802
803 801 798 802 800 791 788 788 786 785 784 779 776 773 770 770 767 768 773 768 764 767 767 769 773 775 779 782 781 778 774 771 772 769 768 770 770 768 768 767 766 770 772 771 773 774 777 783 790 800 808 802 791 789 786 784 794 808 814 814 805 797 797 799 798 795 791 792 799 806 810 808 800 795 796 797 796 797 797 796 796 797 795 794 795 797 801 804